Location: Lane
(33.5226°N, 79.8788°W)
Time: 05:59:41
(UTC+00:00)

Vanguard 2 - Pass Details

Date: 09 October 2022
Orbit: 553 x 2933 km, 32.9° (Epoch: 26 November)

Event Time Altitude Azimuth Distance (km) Brightness Sun altitude
Rises 14:18:56 0° 209° (SSW) 3,196 10.8 33.7°
Reaches altitude 10° 14:21:22 10° 196° (SSW) 2,489 10.5 34.1°
Maximum altitude 14:26:18 27° 140° (SE) 2,017 11.8 34.9°
Drops below altitude 10° 14:33:27 10° 88° (E) 3,735 11.8 36.0°
Sets 14:38:02 0° 78° (ENE) 5,183 12.2 36.8°
